Location: Campillo
(40.8621°N, 4.2488°W)
Time: 11:54:59
(UTC+00:00)

Cosmos 1862 - Pass Details

Date: 11 May 2021
Orbit: 539 x 554 km, 82.5° (Epoch: 13 June)

Event Time Altitude Azimuth Distance (km) Brightness Sun altitude
Rises 19:54:10 0° 347° (NNW) 2,720 7.6 -5.9°
Reaches altitude 10° 19:56:21 10° 343° (NNW) 1,825 6.8 -6.3°
Maximum altitude 20:00:16 54° 266° (W) 670 4.1 -6.9°
Drops below altitude 10° 20:04:11 10° 189° (S) 1,819 5.7 -7.5°
Sets 20:06:22 0° 184° (S) 2,711 6.6 -7.9°
